Location: Unspecified
(0.0000°N, 0.0000°E)
Time: 10:11:32
(UTC+00:00)

ARIANE 2 DEB - Pass Details

Date: 15 March 2026
Orbit: 561 x 35705 km, 7.7° (Epoch: 19 April)

Event Time Altitude Azimuth Distance (km) Brightness Sun altitude
Rises 01:43:51 0° 263° (W) 11,459 ? -66.2°
Reaches altitude 10° 01:50:16 10° 263° (W) 12,151 ? -64.6°
Enters shadow 01:57:59 20° 263° (W) 13,211 ? -62.7°
Exits shadow 03:11:28 48° 268° (W) 24,625 ? -44.3°
Maximum altitude 11:35:40 76° 3° (N) 2,015 ? 81.4°
Drops below altitude 10° 11:41:33 10° 89° (E) 2,731 ? 82.9°
Sets 11:43:01 0° 91° (E) 3,331 ? 83.2°
